[[{"header":{"parameterUnit":"m.s-1","parameterCategory":1,"la1":30.2991,"la2":30.254,"lo1":-89.0895,"lo2":-89.0444,"dy":0.0017,"dx":0.0017,"nx":28,"ny":28,"refTime":"2025-03-08T09:00:00:Z","depth":0,"parameterNumber":2,"parameterNumberName":"U-component_of_WINDS"},"data":[0,0,0,0,0,0,0,0,0,0,0,0,0,0,0,0,0,0,0,0,0,0,0,0,0,0,0,0,0,0,0,0,0,0,0,0,0,0,0,0,0,0,0,0,0,0,0,0,0,0,0,0,0,0,0,0,0,0,6.6011,6.6011,0,6.6085,6.6085,6.6086,6.5972,6.5968,6.5964,6.5961,6.6037,6.6043,6.6049,0,0,0,0,0,0,0,0,0,0,0,0,0,6.5773,6.5778,6.6011,6.6011,6.6012,6.6084,6.6085,6.6086,6.5973,6.5968,6.5963,6.5959,6.6036,6.6042,6.6049,0,0,0,0,0,0,0,0,0,0,0,0,0,6.5865,6.578,6.601,6.5964,6.5961,6.6084,6.6086,6.6087,6.5974,6.5968,6.5962,6.5957,6.6033,6.6042,6.605,6.6222,0,0,6.6076,6.608,0,0,0,0,0,0,0,0,6.586,6.5874,6.597,6.5968,6.5964,6.6013,6.603,6.6132,6.5976,6.5969,6.5961,6.5954,6.6034,6.6042,6.6069,6.6225,6.6229,6.6077,6.6082,6.6086,6.6088,0,0,0,0,0,0,0,6.5853,6.587,6.604,6.5972,6.5968,6.5941,6.5947,6.6049,6.6034,6.5969,6.5961,6.5971,6.6031,6.6061,6.607,6.623,6.6077,6.6085,6.609,6.6093,6.6534,6.6541,0,0,0,0,0,0,6.5852,6.5865,6.6037,6.6042,6.5896,6.595,6.5957,6.6003,6.6033,6.6031,6.5976,6.5966,6.605,6.606,6.6073,6.6278,6.6086,6.6094,6.6099,6.6528,6.6536,6.6543,0,0,0,0,0,0,6.5848,6.5869,6.6034,6.5952,6.597,6.596,6.6013,6.6008,6.6038,6.6038,6.6035,6.601,6.6045,6.606,6.6186,6.6279,6.6098,6.6106,6.652,6.653,6.6539,6.669,0,0,0,0,0,0,6.5841,6.5868,6.5932,6.5954,6.5975,6.6147,6.6019,6.6014,6.6053,6.604,6.6068,6.6067,6.6042,6.6174,6.6195,6.6288,6.6112,6.6512,6.6525,6.6536,6.6677,6.6704,6.6727,0,0,0,0,0,6.5833,6.5971,6.5936,6.5958,6.6056,6.6152,6.6165,6.6132,6.6061,6.6126,6.6127,6.6067,6.6265,6.6188,6.621,6.6307,6.6506,6.6521,6.6535,6.6665,6.6698,6.6726,0,0,0,0,0,0,6.5961,6.5973,6.5935,6.6083,6.6118,6.6133,6.6214,6.6168,6.6223,6.6209,6.6166,6.6174,6.631,6.632,6.6234,6.6477,6.6374,6.6394,6.6465,6.6496,6.6521,6.6516,6.612,0,0,0,0,0,6.6006,6.6083,6.609,6.6221,6.624,6.6225,6.6265,6.6238,6.6272,6.6286,6.6295,6.6331,6.6402,6.6449,6.6514,6.6677,6.6683,6.6755,6.678,6.68,6.6819,6.6909,6.6942,6.6591,6.6591,6.6591,0,0,6.6101,6.6117,6.6168,6.6247,6.627,6.6352,6.6238,6.6328,6.6389,6.6299,6.642,6.6428,6.6465,6.6612,6.6677,6.6625,6.6917,6.6819,6.6836,6.6843,6.6928,6.6961,6.6991,6.6601,6.66,6.6598,0,0,6.6316,6.6335,6.6447,6.6474,6.6511,6.65,6.6527,6.655,6.6553,6.6673,6.6608,6.668,6.6802,6.6832,6.6863,6.7092,6.704,6.7115,6.7247,6.7335,6.7363,6.7387,6.7472,6.7502,6.7132,6.7133,6.7133,0,6.6429,6.6549,6.6511,6.6608,6.6645,6.6568,6.6683,6.671,6.6767,6.6795,6.6736,6.689,6.6909,6.7063,6.7119,6.7146,6.7177,6.7112,6.7362,6.7386,6.7408,6.7488,6.752,6.7142,6.7141,6.714,6.7139,0,6.6688,6.6773,6.686,6.6918,6.6964,6.707,6.7049,6.7101,6.7069,6.7065,6.719,6.7211,6.728,6.7314,6.7283,6.7465,6.7432,6.7368,6.7264,6.7451,6.7526,6.7556,6.7155,6.7152,6.7149,6.7147,0,0,6.6986,6.7023,6.7055,6.7082,6.7118,6.7183,6.7286,6.7354,6.7401,6.7442,6.7529,6.7635,6.7577,6.7613,6.7585,6.7663,6.7847,6.759,6.759,6.7639,6.8051,6.8101,6.8137,6.7812,6.7817,6.7822,6.8049,0,6.7203,6.738,6.735,6.7522,6.7601,6.753,6.7619,6.7652,6.7652,6.772,6.7718,6.7796,6.7712,6.7733,6.7806,6.7809,6.793,6.7792,6.7894,6.7898,6.7889,6.8176,6.8228,6.8442,6.8078,6.8083,6.8086,0,6.7479,6.7533,6.7714,6.774,6.7772,6.7853,6.7915,6.798,6.8016,6.801,6.8052,6.801,6.8114,6.8007,6.8151,6.8059,6.8098,6.8106,6.8114,6.8124,6.8005,6.8196,6.8508,6.8542,6.8131,6.8128,6.8125,0,6.7682,6.7799,6.7923,6.7948,6.7981,6.804,6.8057,6.8087,6.8131,6.8184,6.8213,6.8277,6.8314,6.8365,6.8343,6.8267,6.8493,6.8383,6.8493,6.8494,6.8545,6.8543,6.8871,6.8567,6.8566,6.8566,6.8565,0,6.7929,6.8043,6.8016,6.8092,6.8219,6.8183,6.831,6.8317,6.8346,6.8424,6.8365,6.8439,6.8404,6.8477,6.846,6.8584,6.86,6.8599,6.8594,6.8606,6.8607,6.8633,6.8619,6.8574,6.8572,6.8571,6.8569,0,6.8178,6.8164,6.8295,6.8316,6.8324,6.8417,6.8435,6.8507,6.8502,6.8602,6.8623,6.8616,6.8699,6.8681,6.8772,6.876,6.8917,6.8891,6.8905,6.89,6.9012,6.9003,6.9371,6.9418,6.9081,6.9084,6.9087,0,6.8338,6.8424,6.8455,6.8503,6.8525,6.8603,6.8648,6.8616,6.8665,6.8714,6.8782,6.8859,6.892,6.9055,6.9059,6.9128,6.9106,6.923,6.9116,6.9127,6.9111,6.9108,6.9118,6.9254,6.9257,6.9261,6.9263,0,6.8624,6.8613,6.868,6.8746,6.8801,6.8851,6.8895,6.8938,6.891,6.8968,6.9052,6.9099,6.9193,6.9271,6.9336,6.9354,6.9306,6.9299,6.9328,6.9343,6.9349,6.935,6.897,6.9291,6.9288,6.9286,6.9285,6.9284,6.8835,6.891,6.8945,6.9021,6.9051,6.9095,6.9165,6.9169,6.9239,6.9313,6.9289,6.9386,6.9422,6.9504,6.953,6.9606,6.9559,6.9601,6.9613,6.9624,6.964,6.9335,6.9617,6.9616,6.9615,6.9615,6.9614,0,6.9121,6.914,6.9211,6.9276,6.9337,6.9285,6.9332,6.9387,6.9473,6.951,6.9572,6.967,6.9746,6.9756,6.9829,6.9888,6.9868,6.9908,6.9905,6.991,6.9675,6.9644,6.9924,6.9924,6.9923,6.9923,6.9923,6.9923,6.9278,6.9403,6.9396,6.9536,6.9553,6.9648,6.968,6.972,6.975,6.9863,6.9926,6.9932,6.9959,7.0033,7.0102,7.0103,7.0134,7.0184,7.0177,6.9957,6.9927,6.9897,6.9868,7.019,7.019,7.0406,7.0408,7.0409]},{"header":{"parameterUnit":"m.s-1","parameterCategory":1,"la1":30.2991,"la2":30.254,"lo1":-89.0895,"lo2":-89.0444,"dy":0.0017,"dx":0.0017,"nx":28,"ny":28,"refTime":"2025-03-08T09:00:00:Z","depth":0,"parameterNumber":3,"parameterNumberName":"V-component_of_WINDS"},"data":[0,0,0,0,0,0,0,0,0,0,0,0,0,0,0,0,0,0,0,0,0,0,0,0,0,0,0,0,0,0,0,0,0,0,0,0,0,0,0,0,0,0,0,0,0,0,0,0,0,0,0,0,0,0,0,0,0,0,-1.1295,-1.1293,0,-1.1159,-1.1157,-1.1156,-1.1094,-1.1095,-1.1095,-1.1095,-1.095,-1.0946,-1.0942,0,0,0,0,0,0,0,0,0,0,0,0,0,-1.1497,-1.1494,-1.1295,-1.1293,-1.1291,-1.1159,-1.1157,-1.1155,-1.1094,-1.1095,-1.1095,-1.1095,-1.0951,-1.0946,-1.0941,0,0,0,0,0,0,0,0,0,0,0,0,0,-1.139,-1.1493,-1.1295,-1.1245,-1.1239,-1.1159,-1.1157,-1.1155,-1.1094,-1.1095,-1.1095,-1.1095,-1.0952,-1.0947,-1.0941,-1.0898,0,0,-1.0922,-1.0919,0,0,0,0,0,0,0,0,-1.1396,-1.1382,-1.1254,-1.1248,-1.1242,-1.1144,-1.1175,-1.1068,-1.1094,-1.1149,-1.1095,-1.1095,-1.1014,-1.1003,-1.0976,-1.0891,-1.0885,-1.0922,-1.0918,-1.0915,-1.0914,0,0,0,0,0,0,0,-1.1404,-1.1388,-1.1241,-1.1252,-1.1245,-1.1228,-1.1213,-1.1155,-1.1081,-1.1144,-1.114,-1.1125,-1.101,-1.0982,-1.0972,-1.0883,-1.0922,-1.0916,-1.0913,-1.091,-1.0757,-1.0756,0,0,0,0,0,0,-1.142,-1.1395,-1.1245,-1.1237,-1.1321,-1.1224,-1.1208,-1.1175,-1.1082,-1.1068,-1.1125,-1.1123,-1.0992,-1.098,-1.0967,-1.0912,-1.0915,-1.091,-1.0906,-1.0757,-1.0757,-1.0756,0,0,0,0,0,0,-1.1424,-1.1407,-1.125,-1.1314,-1.1293,-1.1221,-1.1184,-1.1172,-1.1144,-1.1067,-1.1053,-1.111,-1.0992,-1.0976,-1.0916,-1.0906,-1.0907,-1.0901,-1.0758,-1.0757,-1.0756,-1.08,0,0,0,0,0,0,-1.1431,-1.1409,-1.1393,-1.1314,-1.129,-1.1203,-1.1184,-1.1169,-1.1135,-1.113,-1.1049,-1.1036,-1.0991,-1.0926,-1.091,-1.0897,-1.0897,-1.0758,-1.0757,-1.0757,-1.0799,-1.0801,-1.0803,0,0,0,0,0,-1.1438,-1.1409,-1.1393,-1.1375,-1.1269,-1.1203,-1.1189,-1.1139,-1.1134,-1.1117,-1.1068,-1.1039,-1.091,-1.092,-1.0902,-1.0887,-1.0759,-1.0758,-1.0757,-1.0799,-1.0801,-1.0803,0,0,0,0,0,0,-1.1486,-1.1398,-1.1378,-1.1324,-1.1272,-1.1193,-1.1169,-1.1143,-1.1089,-1.1087,-1.1026,-1.1008,-1.0955,-1.0915,-1.0928,-1.0842,-1.0832,-1.0827,-1.087,-1.0871,-1.0873,-1.0883,-1.0892,0,0,0,0,0,-1.149,-1.1446,-1.1371,-1.133,-1.1305,-1.1242,-1.1211,-1.1178,-1.1121,-1.1098,-1.1044,-1.0988,-1.0935,-1.0901,-1.0847,-1.0794,-1.0775,-1.0775,-1.0776,-1.0778,-1.0775,-1.0744,-1.0743,-1.0753,-1.0753,-1.0753,0,0,-1.1498,-1.1445,-1.142,-1.1338,-1.1294,-1.1248,-1.1224,-1.1176,-1.1141,-1.1089,-1.1031,-1.099,-1.0923,-1.0867,-1.084,-1.0832,-1.0768,-1.0777,-1.0779,-1.0774,-1.0743,-1.0742,-1.0741,-1.0752,-1.0752,-1.0752,0,0,-1.149,-1.1445,-1.1406,-1.1363,-1.1298,-1.1257,-1.1248,-1.1173,-1.1145,-1.1086,-1.1047,-1.1004,-1.0913,-1.0868,-1.0833,-1.081,-1.0782,-1.0794,-1.0802,-1.0773,-1.0773,-1.0772,-1.0764,-1.0761,-1.0791,-1.0791,-1.0791,0,-1.1507,-1.1438,-1.1389,-1.1345,-1.131,-1.1264,-1.1224,-1.1184,-1.1104,-1.108,-1.1074,-1.0961,-1.0912,-1.0845,-1.0841,-1.0814,-1.0801,-1.0803,-1.0777,-1.0776,-1.0774,-1.0765,-1.0763,-1.0793,-1.0793,-1.0793,-1.0793,0,-1.1464,-1.1417,-1.1393,-1.132,-1.1282,-1.1239,-1.1183,-1.1151,-1.1121,-1.1081,-1.1021,-1.0963,-1.0897,-1.0879,-1.0848,-1.0808,-1.0806,-1.0789,-1.0778,-1.0776,-1.0767,-1.0763,-1.0796,-1.0795,-1.0795,-1.0794,0,0,-1.1479,-1.1381,-1.1373,-1.134,-1.1265,-1.1227,-1.1183,-1.1122,-1.1095,-1.1042,-1.1003,-1.0929,-1.0914,-1.0874,-1.0838,-1.0813,-1.08,-1.0799,-1.0797,-1.0801,-1.0752,-1.0764,-1.0762,-1.0781,-1.078,-1.078,-1.0757,0,-1.146,-1.1381,-1.1336,-1.1275,-1.1231,-1.1189,-1.115,-1.11,-1.1061,-1.1017,-1.0973,-1.0922,-1.0906,-1.0882,-1.0855,-1.0807,-1.0789,-1.0808,-1.0743,-1.0741,-1.0761,-1.0757,-1.0769,-1.0751,-1.0753,-1.0753,-1.0752,0,-1.1427,-1.1377,-1.1312,-1.1245,-1.1224,-1.1191,-1.1132,-1.1091,-1.1033,-1.1006,-1.0964,-1.0929,-1.088,-1.0874,-1.0805,-1.0819,-1.079,-1.0763,-1.0761,-1.0752,-1.0746,-1.0748,-1.0744,-1.0741,-1.0746,-1.0747,-1.0747,0,-1.1445,-1.1361,-1.1312,-1.1285,-1.1205,-1.1182,-1.1147,-1.109,-1.1056,-1.1004,-1.0982,-1.0924,-1.0892,-1.0848,-1.0798,-1.0798,-1.0735,-1.0724,-1.071,-1.0712,-1.0698,-1.0699,-1.0689,-1.068,-1.068,-1.068,-1.068,0,-1.1428,-1.139,-1.132,-1.1289,-1.1246,-1.1195,-1.1152,-1.1114,-1.1063,-1.1024,-1.0983,-1.0947,-1.0884,-1.0839,-1.08,-1.075,-1.0735,-1.0712,-1.0702,-1.0715,-1.0718,-1.0694,-1.0694,-1.068,-1.068,-1.068,-1.068,0,-1.144,-1.1392,-1.1335,-1.1265,-1.1246,-1.1217,-1.1156,-1.1125,-1.1085,-1.1036,-1.1021,-1.0958,-1.0904,-1.0851,-1.0777,-1.0751,-1.0701,-1.0687,-1.0721,-1.0715,-1.0705,-1.0707,-1.0679,-1.0673,-1.0669,-1.0669,-1.0669,0,-1.1432,-1.1402,-1.133,-1.1302,-1.1269,-1.1224,-1.119,-1.1139,-1.1106,-1.1039,-1.1015,-1.0959,-1.0911,-1.0826,-1.0773,-1.0717,-1.0702,-1.0696,-1.0692,-1.0708,-1.0701,-1.0704,-1.07,-1.0697,-1.0697,-1.0698,-1.0698,0,-1.1423,-1.1402,-1.1356,-1.1303,-1.1265,-1.1219,-1.1172,-1.1151,-1.1091,-1.1056,-1.1001,-1.0965,-1.0891,-1.0836,-1.0774,-1.0736,-1.0707,-1.07,-1.0694,-1.0707,-1.0728,-1.0716,-1.0725,-1.07,-1.07,-1.07,-1.07,-1.0699,-1.1425,-1.1397,-1.1342,-1.1293,-1.1253,-1.1211,-1.1179,-1.1136,-1.1091,-1.1029,-1.1001,-1.0947,-1.089,-1.0805,-1.0768,-1.0724,-1.0716,-1.0707,-1.0705,-1.0703,-1.0706,-1.0736,-1.0712,-1.0712,-1.0712,-1.0712,-1.0712,0,-1.1414,-1.1377,-1.1333,-1.127,-1.1232,-1.1211,-1.1158,-1.1127,-1.108,-1.1031,-1.0986,-1.0924,-1.087,-1.0814,-1.0757,-1.0733,-1.0718,-1.0719,-1.072,-1.0712,-1.0716,-1.0727,-1.0732,-1.0732,-1.0732,-1.0732,-1.0732,-1.0732,-1.1403,-1.1356,-1.1328,-1.126,-1.1223,-1.1171,-1.1143,-1.1104,-1.1065,-1.0998,-1.0955,-1.0919,-1.0867,-1.0806,-1.0756,-1.0741,-1.0722,-1.0727,-1.0708,-1.0713,-1.0711,-1.071,-1.072,-1.0723,-1.0723,-1.0707,-1.0707,-1.0707]}]]